Location: McFarlands Corners
(41.4117°N, 81.3382°W)
Time: 19:35:34
(UTC+00:00)

Transit 4A - Pass Details

Date: 24 February 2026
Orbit: 864 x 977 km, 66.8° (Epoch: 10 March)

Event Time Altitude Azimuth Distance (km) Brightness Sun altitude
Rises 17:11:19 0° 325° (NW) 3,626 10.6 38.9°
Reaches altitude 10° 17:13:54 10° 320° (NW) 2,692 10.0 39.0°
Maximum altitude 17:19:56 50° 247° (WSW) 1,220 9.2 39.1°
Drops below altitude 10° 17:26:02 10° 174° (S) 2,715 11.6 39.2°
Sets 17:28:40 0° 169° (S) 3,660 11.9 39.3°
